DELTA 1 DEB, 9835

Orbit data source: Space-Track

DELTA 1 DEB, 9835 is space debris in LEO originally from a launch on Tue, 06 Nov 1973 UTC launched from the Air Force Western Test Range (AFWTR). Debris objects in space refer to the collection of defunct objects orbiting the Earth. Examples of debris include non-operational satellites, rocket bodies, and fragments generated from explosions, collisions, or faulty payload assembly.

Loading next visibility...
Identifier
9835, 1973-086GD
Orbit
LEO
Country
Flag of USUS
Related business
Manufacturer
Unknown
Mission
Spacecraft
Bus & Motor
Unknown
Mass
Unknown
Launch date (UTC)
1973-11-06 (53 years ago)
Launch vehicle
Unknown
Launch site
Air Force Western Test Range (AFWTR)
Object type
Payload
Rocket body
Debris
Shape & HBR
Unknown shape, 0.1 m
Radar Cross Section
Medium (>0.1 m² and <1 m²)

Expand to show TLE details & history
Last TLE update: 1 day ago

TLE from 1 day ago
0 DELTA 1 DEB
1 09835U 73086GD  26262.41457697 -.00000002  00000-0  50183-3 0  9993
2 09835 101.3268  55.8455 0668065 267.0653 108.5529 11.33509551597240
Epoch: 2026-09-19T09:56Z
TLE epoch observation values (Epoch: 2026-09-19T09:56:59.450Z)
Latitude
22.21706°
Longitude
-96.39727°
Altitude
2,205.712 km
Speed
6.731 km/s
True Right ascension
03h 24m 41s
True Declination
22° 07' 02"
Sunlit
Object was in daylight at epoch
Visualization orbit readout
Latitude
Unknown
Longitude
Unknown
Altitude
Unknown
Speed
Unknown
Apparent Right ascension
Unknown
Apparent Declination
Unknown
Sunlit
N/A
Visualization observer readout
Local Sidereal Time
11:56:29
Azimuth
Unknown
Elevation
Unknown
Doppler factor
Unknown
Orbital elements
Apogee altitude
2,549.767 km
Perigee altitude
1,431.584 km
Semi-major axis
8,368.812 km
Eccentricity
0.06681
Inclination
101.3268°
RAAN
55.8455°
Arg. of periapsis
267.0653°
True anomaly
115.60469°
Mean anomaly
108.5529°
Eccentric anomaly
112.09942°
Mean motion
2.83496 °/min
Orbital period
126.99 mins
BSTAR
0.00050183
Loading maneuver chart data...
Computing Atmospheric mass density...
Loading historical data...
Loading historical data...
Loading historical data...
Loading historical data...
Loading historical data...
Loading historical data...
Loading historical data...

Documentation

Showing up to 5 results
|